Location: Asheville, NC
(35.6000°N, 82.5500°W)
Time: 07:02:20
(UTC-05:00)

XW-2C - Pass Details

Date: 09 February 2018
Orbit: 509 x 532 km, 97.5° (Epoch: 18 February)

Event Time Altitude Azimuth Distance (km) Brightness Sun altitude
Rises 18:42:51 0° 201° (SSW) 2,632 ? -8.0°
Reaches altitude 10° 18:45:29 10° 221° (SW) 1,745 ? -8.6°
Maximum altitude 18:48:04 18° 265° (W) 1,326 ? -9.1°
Drops below altitude 10° 18:50:41 10° 309° (NW) 1,745 ? -9.6°
Sets 18:53:19 0° 329° (NNW) 2,632 ? -10.1°
